Lid_Strength_Index
2 2 2 2 2 2 1 1 1 1 1 1 1 2 2 2 2 4 5 2 2 -1 -1 5 5 5 5 6 4 4 10 13 11 11 9 6 8 6 4 6 5 5 5 4 2
2 2 2 2 2 2 2 2 1 1 1 1 1 1 1 2 3 4 1 -1 -1 -2 5 5 6 5 7 7 5 7 10 9 7 7 8 7 7 7 7 7 7 6 4 3 2
2 3 3 2 2 2 2 2 2 2 2 2 1 1 1 2 5 4 -3 -2 -1 -1 4 4 5 6 8 7 6 6 9 7 6 6 6 6 7 5 8 9 7 7 6 4 3
3 3 3 3 2 2 2 2 2 2 2 2 2 1 1 2 9 3 -3 -3 -3 2 6 5 6 7 8 8 5 7 5 6 6 5 6 7 6 7 7 6 5 4 4 4 4
3 3 3 3 3 2 2 2 2 2 2 2 1 1 3 6 6 2 -4 -2 1 4 6 6 7 7 9 7 6 7 6 5 5 5 5 5 7 7 7 5 4 4 4 4 4
3 3 3 3 3 3 2 2 2 2 2 2 1 0 4 8 3 2 1 1 3 5 6 6 6 6 7 7 7 6 5 5 5 5 5 7 6 6 6 4 5 4 5 4 4
3 3 3 3 3 3 3 3 3 3 2 1 1 1 5 6 2 3 1 2 4 5 6 5 5 6 7 7 5 6 7 5 6 6 6 6 8 8 6 5 6 5 5 4 4
3 3 3 3 3 3 3 3 3 2 2 1 -0 3 8 3 3 3 4 4 4 6 5 4 5 7 7 7 7 8 8 10 7 6 5 6 10 7 6 6 7 6 5 5 4
3 3 3 3 3 3 3 3 3 2 1 0 4 5 7 0 4 4 5 5 4 5 5 3 7 9 8 10 12 10 12 10 7 6 6 8 10 7 6 6 7 6 6 5 5
3 3 4 4 3 3 4 3 3 3 2 1 1 7 5 4 5 5 5 5 4 5 5 6 10 11 12 12 15 11 11 9 10 7 7 8 9 7 6 6 6 6 5 5 5
3 4 4 4 4 4 5 5 7 7 6 9 8 5 4 3 5 6 5 5 5 7 9 8 12 13 11 11 10 10 10 11 9 7 8 9 9 8 6 6 7 6 6 5 5
4 4 4 4 4 4 7 7 5 5 8 5 4 5 4 4 6 6 4 6 7 9 8 10 12 9 9 8 9 9 10 11 9 6 8 9 9 8 7 7 6 6 6 6 5
4 4 4 4 4 7 7 6 4 4 9 6 5 5 5 5 6 6 5 6 8 9 9 11 9 7 8 9 10 12 13 11 10 8 8 9 10 9 7 6 6 6 5 5 5
4 4 4 4 7 6 6 5 6 5 11 9 9 6 5 5 7 4 5 6 8 9 9 10 7 8 9 9 10 12 9 8 8 11 13 10 15 11 9 8 7 6 6 5 5
4 4 4 4 7 5 4 4 5 6 16 7 8 5 6 8 7 7 4 6 8 8 9 9 8 9 10 9 9 10 8 9 9 11 13 12 14 12 9 10 8 8 6 5 5
4 4 4 6 8 6 4 4 5 11 15 9 7 9 9 9 7 7 6 6 6 8 10 10 8 9 9 8 8 7 10 11 10 12 15 14 13 13 11 9 8 7 6 5 5
5 5 5 4 7 4 4 6 11 14 8 10 10 8 8 9 8 8 9 10 11 14 14 10 10 10 8 10 9 10 14 16 16 17 16 13 13 12 9 8 7 8 6 5 5
6 5 6 5 6 6 5 9 15 10 10 8 8 9 9 9 9 8 10 12 10 11 13 14 13 10 9 10 11 12 13 16 17 19 16 12 14 11 8 7 6 6 6 5 5
7 8 7 5 5 6 7 12 12 10 8 8 10 12 12 9 9 10 10 11 10 10 12 13 12 8 8 9 9 11 13 11 14 15 15 13 11 9 8 8 7 7 6 6 6
7 7 6 3 4 6 9 12 11 7 6 7 10 10 12 11 10 11 11 8 8 8 9 12 13 10 7 8 8 10 10 13 14 17 19 15 14 13 11 10 8 8 7 7 6
7 7 4 4 3 8 11 12 9 7 7 8 9 10 10 10 10 10 10 9 8 9 8 10 12 12 10 11 12 12 13 13 13 14 16 18 16 10 10 9 9 8 7 6 6
7 9 5 3 8 10 11 9 8 8 7 8 8 8 9 8 9 10 10 10 7 8 10 11 13 15 12 10 10 11 13 13 14 15 15 15 15 8 9 8 8 8 7 6 5
7 6 5 4 10 11 9 8 8 8 8 7 8 8 7 9 10 9 9 8 7 9 11 10 14 16 14 14 11 13 13 14 14 14 16 17 15 8 8 8 8 8 7 6 5
7 9 8 7 8 9 11 10 9 6 7 7 8 8 9 10 10 11 10 8 8 9 4 8 13 14 15 14 13 13 12 13 15 17 17 15 15 11 10 9 8 7 7 6 6
8 9 8 10 9 10 10 10 9 9 7 7 8 8 10 12 12 12 10 10 9 5 9 11 14 11 12 10 11 12 11 11 14 14 16 13 14 11 10 9 8 7 7 6 7
11 10 9 9 7 9 11 10 8 8 8 9 9 8 9 11 12 13 12 13 12 10 11 11 12 12 12 9 9 10 9 9 10 10 12 11 12 9 8 9 7 7 6 6 6
8 8 9 9 9 10 9 8 8 7 7 7 7 9 9 9 9 10 10 10 12 12 12 12 12 14 14 11 11 13 10 10 10 10 10 13 11 9 9 8 7 7 6 6 6